Location: Gallinara
(44.0333°N, 8.2333°E)
Time: 11:31:50
(UTC+00:00)

IRIDIUM 104 - Pass Details

Date: 25 September 2020
Orbit: 776 x 779 km, 86.4° (Epoch: 24 October)

Event Time Altitude Azimuth Distance (km) Brightness Sun altitude
Rises 03:05:11 0° 355° (N) 3,270 7.8 -24.1°
Reaches altitude 10° 03:07:33 10° 354° (N) 2,338 7.0 -23.7°
Maximum altitude 03:12:46 76° 269° (W) 804 4.2 -22.8°
Enters shadow 03:15:16 32° 189° (S) 1,322 5.2 -22.4°
